Terminal Aerodrome Forecast
Issued by NWS

Home | Current Version | Previous Version | Graphics & Text | Print | Product List | Glossary On
Versions: 1 2 3 4 5 6 7 8 9 10 11 12 13 14 15 16
101
FTUS43 KMPX 291120
TAFRNH
TAF
KRNH 291120Z 2912/3012 VRB02KT 6SM BR BKN015 BKN040
      TEMPO 2912/2913 2SM BR
     FM291300 01004KT 6SM BR SCT015 BKN025
     FM291600 03007KT P6SM SCT025 BKN035
     FM300000 04006KT P6SM SCT250=

USA.gov is the U.S. government's official web portal to all federal, state and local government web resources and services.